owner,sensor,date,latitude,longitude,vertical_datum,wind_speed,wind_to_direction,wind_speed_of_gust,qcFlag 
NDBC,ioos:station:NOAA.NDBC:FWYF1:1,2019-04-01T00:00:00Z,25.5910,-80.0970,43.9,3.6,150.0,3.6,'1111122,1111122,1111122' 
NDBC,ioos:station:NOAA.NDBC:FWYF1:1,2019-04-01T02:00:00Z,25.5910,-80.0970,43.9,3.1,190.0,3.6,'1111122,1111122,1111122' 
NDBC,ioos:station:NOAA.NDBC:FWYF1:1,2019-04-01T03:00:00Z,25.5910,-80.0970,43.9,4.1,180.0,4.1,'1111122,1111122,1111122' 
NDBC,ioos:station:NOAA.NDBC:FWYF1:1,2019-04-01T04:00:00Z,25.5910,-80.0970,43.9,3.1,190.0,3.6,'1111122,1111122,1111122' 
NDBC,ioos:station:NOAA.NDBC:FWYF1:1,2019-04-01T05:00:00Z,25.5910,-80.0970,43.9,2.6,190.0,3.1,'1111122,1111122,1111122' 
NDBC,ioos:station:NOAA.NDBC:FWYF1:1,2019-04-01T06:00:00Z,25.5910,-80.0970,43.9,3.1,260.0,3.1,'1111122,1111122,1111122' 
NDBC,ioos:station:NOAA.NDBC:FWYF1:1,2019-04-01T07:00:00Z,25.5910,-80.0970,43.9,2.1,270.0,2.1,'1111122,1111122,1111122' 
NDBC,ioos:station:NOAA.NDBC:FWYF1:1,2019-04-01T08:00:00Z,25.5910,-80.0970,43.9,3.6,310.0,4.1,'1111122,1111122,1111122' 
NDBC,ioos:station:NOAA.NDBC:FWYF1:1,2019-04-01T09:00:00Z,25.5910,-80.0970,43.9,1.5,320.0,2.1,'1111122,1111122,1111122' 
NDBC,ioos:station:NOAA.NDBC:FWYF1:1,2019-04-01T10:00:00Z,25.5910,-80.0970,43.9,1.0,160.0,1.5,'1111122,1111122,1111122' 
NDBC,ioos:station:NOAA.NDBC:FWYF1:1,2019-04-01T11:00:00Z,25.5910,-80.0970,43.9,0.0,-9999.0,0.5,'1114422,1111122,1111122' 
NDBC,ioos:station:NOAA.NDBC:FWYF1:1,2019-04-01T12:00:00Z,25.5910,-80.0970,43.9,1.5,290.0,2.1,'1111122,1111122,1111122' 
NDBC,ioos:station:NOAA.NDBC:FWYF1:1,2019-04-01T14:00:00Z,25.5910,-80.0970,43.9,2.6,320.0,3.1,'1111122,1111122,1111122' 
NDBC,ioos:station:NOAA.NDBC:FWYF1:1,2019-04-01T15:00:00Z,25.5910,-80.0970,43.9,1.0,350.0,1.0,'1111122,1111122,1111122' 
NDBC,ioos:station:NOAA.NDBC:FWYF1:1,2019-04-01T17:00:00Z,25.5910,-80.0970,43.9,1.0,210.0,1.5,'1111122,1111122,1111122' 
NDBC,ioos:station:NOAA.NDBC:FWYF1:1,2019-04-01T18:00:00Z,25.5910,-80.0970,43.9,3.1,200.0,3.6,'1111122,1111122,1111122' 
NDBC,ioos:station:NOAA.NDBC:FWYF1:1,2019-04-01T19:00:00Z,25.5910,-80.0970,43.9,6.2,180.0,6.7,'1111122,1111122,1111122' 
NDBC,ioos:station:NOAA.NDBC:FWYF1:1,2019-04-01T20:00:00Z,25.5910,-80.0970,43.9,6.2,180.0,6.7,'1111122,1111122,1111122' 
NDBC,ioos:station:NOAA.NDBC:FWYF1:1,2019-04-01T21:00:00Z,25.5910,-80.0970,43.9,7.2,180.0,7.2,'1111122,1111122,1111122' 
NDBC,ioos:station:NOAA.NDBC:FWYF1:1,2019-04-01T22:00:00Z,25.5910,-80.0970,43.9,6.2,180.0,6.7,'1111122,1111122,1111122' 
NDBC,ioos:station:NOAA.NDBC:FWYF1:1,2019-04-01T23:00:00Z,25.5910,-80.0970,43.9,7.2,180.0,7.2,'1111122,1111122,1111122' 
NDBC,ioos:station:NOAA.NDBC:FWYF1:1,2019-04-02T00:00:00Z,25.5910,-80.0970,43.9,7.7,180.0,8.2,'1111122,1111122,1111122' 
NDBC,ioos:station:NOAA.NDBC:FWYF1:1,2019-04-02T02:00:00Z,25.5910,-80.0970,43.9,7.2,200.0,7.7,'1111122,1111122,1111122' 
NDBC,ioos:station:NOAA.NDBC:FWYF1:1,2019-04-02T03:00:00Z,25.5910,-80.0970,43.9,6.7,210.0,7.2,'1111122,1111122,1111122' 
NDBC,ioos:station:NOAA.NDBC:FWYF1:1,2019-04-02T04:00:00Z,25.5910,-80.0970,43.9,4.6,220.0,5.1,'1111122,1111122,1111122' 
NDBC,ioos:station:NOAA.NDBC:FWYF1:1,2019-04-02T05:00:00Z,25.5910,-80.0970,43.9,3.1,220.0,3.6,'1111122,1111122,1111122' 
NDBC,ioos:station:NOAA.NDBC:FWYF1:1,2019-04-02T06:00:00Z,25.5910,-80.0970,43.9,4.6,300.0,4.6,'1111122,1111122,1111122' 
NDBC,ioos:station:NOAA.NDBC:FWYF1:1,2019-04-02T07:00:00Z,25.5910,-80.0970,43.9,3.1,310.0,3.1,'1111122,1111122,1111122' 
NDBC,ioos:station:NOAA.NDBC:FWYF1:1,2019-04-02T08:00:00Z,25.5910,-80.0970,43.9,2.6,330.0,2.6,'1111122,1111122,1111122' 
NDBC,ioos:station:NOAA.NDBC:FWYF1:1,2019-04-02T09:00:00Z,25.5910,-80.0970,43.9,2.6,350.0,2.6,'1111122,1111122,1111122' 
NDBC,ioos:station:NOAA.NDBC:FWYF1:1,2019-04-02T10:00:00Z,25.5910,-80.0970,43.9,1.5,350.0,2.1,'1111122,1111122,1111122' 
NDBC,ioos:station:NOAA.NDBC:FWYF1:1,2019-04-02T11:00:00Z,25.5910,-80.0970,43.9,1.0,40.0,1.5,'1111122,1111122,1111122' 
NDBC,ioos:station:NOAA.NDBC:FWYF1:1,2019-04-02T12:00:00Z,25.5910,-80.0970,43.9,1.5,120.0,1.5,'1111122,1111122,1111122' 
NDBC,ioos:station:NOAA.NDBC:FWYF1:1,2019-04-02T13:00:00Z,25.5910,-80.0970,43.9,2.6,160.0,2.6,'1111122,1111122,1111122' 
NDBC,ioos:station:NOAA.NDBC:FWYF1:1,2019-04-02T15:00:00Z,25.5910,-80.0970,43.9,5.7,190.0,6.2,'1111122,1111122,1111122' 
NDBC,ioos:station:NOAA.NDBC:FWYF1:1,2019-04-02T16:00:00Z,25.5910,-80.0970,43.9,6.7,190.0,7.2,'1111122,1111122,1111122' 
NDBC,ioos:station:NOAA.NDBC:FWYF1:1,2019-04-02T17:00:00Z,25.5910,-80.0970,43.9,7.7,180.0,8.2,'1111122,1111122,1111122' 
NDBC,ioos:station:NOAA.NDBC:FWYF1:1,2019-04-02T18:00:00Z,25.5910,-80.0970,43.9,8.8,170.0,9.3,'1111122,1111122,1111122' 
NDBC,ioos:station:NOAA.NDBC:FWYF1:1,2019-04-02T19:00:00Z,25.5910,-80.0970,43.9,9.8,180.0,10.8,'1111122,1111122,1111122' 
NDBC,ioos:station:NOAA.NDBC:FWYF1:1,2019-04-02T20:00:00Z,25.5910,-80.0970,43.9,8.8,180.0,9.3,'1111122,1111122,1111122' 
NDBC,ioos:station:NOAA.NDBC:FWYF1:1,2019-04-02T21:00:00Z,25.5910,-80.0970,43.9,9.3,190.0,10.3,'1111122,1111122,1111122' 
NDBC,ioos:station:NOAA.NDBC:FWYF1:1,2019-04-02T22:00:00Z,25.5910,-80.0970,43.9,10.3,200.0,11.3,'1111122,1111122,1111122' 
NDBC,ioos:station:NOAA.NDBC:FWYF1:1,2019-04-02T23:00:00Z,25.5910,-80.0970,43.9,8.8,260.0,9.3,'1111122,1111122,1111122' 
NDBC,ioos:station:NOAA.NDBC:FWYF1:1,2019-04-03T00:00:00Z,25.5910,-80.0970,43.9,9.3,270.0,9.8,'1111122,1111122,1111122' 
NDBC,ioos:station:NOAA.NDBC:FWYF1:1,2019-04-03T02:00:00Z,25.5910,-80.0970,43.9,7.2,270.0,8.2,'1111122,1111122,1111122' 
NDBC,ioos:station:NOAA.NDBC:FWYF1:1,2019-04-03T03:00:00Z,25.5910,-80.0970,43.9,6.7,260.0,7.2,'1111122,1111122,1111122' 
NDBC,ioos:station:NOAA.NDBC:FWYF1:1,2019-04-03T04:00:00Z,25.5910,-80.0970,43.9,6.2,290.0,6.7,'1111122,1111122,1111122' 
NDBC,ioos:station:NOAA.NDBC:FWYF1:1,2019-04-03T05:00:00Z,25.5910,-80.0970,43.9,5.7,320.0,6.2,'1111122,1111122,1111122' 
NDBC,ioos:station:NOAA.NDBC:FWYF1:1,2019-04-03T07:00:00Z,25.5910,-80.0970,43.9,4.6,340.0,5.7,'1111122,1111122,1111122' 
NDBC,ioos:station:NOAA.NDBC:FWYF1:1,2019-04-03T08:00:00Z,25.5910,-80.0970,43.9,5.1,350.0,5.7,'1111122,1111122,1111122' 
NDBC,ioos:station:NOAA.NDBC:FWYF1:1,2019-04-03T09:00:00Z,25.5910,-80.0970,43.9,4.1,330.0,4.6,'1111122,1111122,1111122' 
NDBC,ioos:station:NOAA.NDBC:FWYF1:1,2019-04-03T10:00:00Z,25.5910,-80.0970,43.9,5.1,350.0,5.7,'1111122,1111122,1111122' 
NDBC,ioos:station:NOAA.NDBC:FWYF1:1,2019-04-03T11:00:00Z,25.5910,-80.0970,43.9,4.6,360.0,5.1,'1111122,1111122,1111122' 
NDBC,ioos:station:NOAA.NDBC:FWYF1:1,2019-04-03T12:00:00Z,25.5910,-80.0970,43.9,8.8,40.0,9.8,'1111122,1111122,1111122' 
NDBC,ioos:station:NOAA.NDBC:FWYF1:1,2019-04-03T14:00:00Z,25.5910,-80.0970,43.9,9.8,50.0,10.3,'1111122,1111122,1111122' 
NDBC,ioos:station:NOAA.NDBC:FWYF1:1,2019-04-03T15:00:00Z,25.5910,-80.0970,43.9,9.3,50.0,10.3,'1111122,1111122,1111122' 
NDBC,ioos:station:NOAA.NDBC:FWYF1:1,2019-04-03T16:00:00Z,25.5910,-80.0970,43.9,9.8,60.0,11.3,'1111122,1111122,1111122' 
NDBC,ioos:station:NOAA.NDBC:FWYF1:1,2019-04-03T17:00:00Z,25.5910,-80.0970,43.9,9.3,60.0,9.8,'1111122,1111122,1111122' 
NDBC,ioos:station:NOAA.NDBC:FWYF1:1,2019-04-03T18:00:00Z,25.5910,-80.0970,43.9,9.8,60.0,10.8,'1111122,1111122,1111122' 
NDBC,ioos:station:NOAA.NDBC:FWYF1:1,2019-04-03T19:00:00Z,25.5910,-80.0970,43.9,9.3,60.0,10.3,'1111122,1111122,1111122' 
NDBC,ioos:station:NOAA.NDBC:FWYF1:1,2019-04-03T20:00:00Z,25.5910,-80.0970,43.9,9.3,60.0,10.3,'1111122,1111122,1111122' 
NDBC,ioos:station:NOAA.NDBC:FWYF1:1,2019-04-03T21:00:00Z,25.5910,-80.0970,43.9,9.3,50.0,9.8,'1111122,1111122,1111122' 
NDBC,ioos:station:NOAA.NDBC:FWYF1:1,2019-04-03T22:00:00Z,25.5910,-80.0970,43.9,9.8,70.0,10.3,'1111122,1111122,1111122' 
NDBC,ioos:station:NOAA.NDBC:FWYF1:1,2019-04-03T23:00:00Z,25.5910,-80.0970,43.9,9.8,60.0,10.8,'1111122,1111122,1111122' 
NDBC,ioos:station:NOAA.NDBC:FWYF1:1,2019-04-04T00:00:00Z,25.5910,-80.0970,43.9,10.8,70.0,11.3,'1111122,1111122,1111122' 
NDBC,ioos:station:NOAA.NDBC:FWYF1:1,2019-04-04T02:00:00Z,25.5910,-80.0970,43.9,11.3,60.0,12.4,'1111122,1111122,1111122' 
NDBC,ioos:station:NOAA.NDBC:FWYF1:1,2019-04-04T03:00:00Z,25.5910,-80.0970,43.9,11.3,60.0,11.8,'1111122,1111122,1111122' 
NDBC,ioos:station:NOAA.NDBC:FWYF1:1,2019-04-04T04:00:00Z,25.5910,-80.0970,43.9,10.8,60.0,11.8,'1111122,1111122,1111122' 
NDBC,ioos:station:NOAA.NDBC:FWYF1:1,2019-04-04T05:00:00Z,25.5910,-80.0970,43.9,10.8,70.0,11.8,'1111122,1111122,1111122' 
NDBC,ioos:station:NOAA.NDBC:FWYF1:1,2019-04-04T06:00:00Z,25.5910,-80.0970,43.9,11.3,70.0,12.4,'1111122,1111122,1111122' 
NDBC,ioos:station:NOAA.NDBC:FWYF1:1,2019-04-04T07:00:00Z,25.5910,-80.0970,43.9,9.8,70.0,10.8,'1111122,1111122,1111122' 
NDBC,ioos:station:NOAA.NDBC:FWYF1:1,2019-04-04T08:00:00Z,25.5910,-80.0970,43.9,10.3,70.0,10.8,'1111122,1111122,1111122' 
NDBC,ioos:station:NOAA.NDBC:FWYF1:1,2019-04-04T09:00:00Z,25.5910,-80.0970,43.9,10.3,80.0,11.3,'1111122,1111122,1111122' 
NDBC,ioos:station:NOAA.NDBC:FWYF1:1,2019-04-04T10:00:00Z,25.5910,-80.0970,43.9,9.3,110.0,9.3,'1111122,1111122,1111122' 
NDBC,ioos:station:NOAA.NDBC:FWYF1:1,2019-04-04T11:00:00Z,25.5910,-80.0970,43.9,7.2,120.0,7.7,'1111122,1111122,1111122' 
NDBC,ioos:station:NOAA.NDBC:FWYF1:1,2019-04-04T12:00:00Z,25.5910,-80.0970,43.9,9.3,100.0,10.3,'1111122,1111122,1111122' 
NDBC,ioos:station:NOAA.NDBC:FWYF1:1,2019-04-04T13:00:00Z,25.5910,-80.0970,43.9,9.8,70.0,9.8,'1111122,1111122,1111122' 
NDBC,ioos:station:NOAA.NDBC:FWYF1:1,2019-04-04T15:00:00Z,25.5910,-80.0970,43.9,11.3,100.0,12.4,'1111122,1111122,1111122' 
NDBC,ioos:station:NOAA.NDBC:FWYF1:1,2019-04-04T16:00:00Z,25.5910,-80.0970,43.9,8.8,70.0,9.8,'1111122,1111122,1111122' 
NDBC,ioos:station:NOAA.NDBC:FWYF1:1,2019-04-04T17:00:00Z,25.5910,-80.0970,43.9,8.2,80.0,9.3,'1111122,1111122,1111122' 
NDBC,ioos:station:NOAA.NDBC:FWYF1:1,2019-04-04T18:00:00Z,25.5910,-80.0970,43.9,9.8,90.0,10.3,'1111122,1111122,1111122' 
NDBC,ioos:station:NOAA.NDBC:FWYF1:1,2019-04-04T19:00:00Z,25.5910,-80.0970,43.9,9.8,90.0,10.3,'1111122,1111122,1111122' 
NDBC,ioos:station:NOAA.NDBC:FWYF1:1,2019-04-04T20:00:00Z,25.5910,-80.0970,43.9,9.3,90.0,10.3,'1111122,1111122,1111122' 
NDBC,ioos:station:NOAA.NDBC:FWYF1:1,2019-04-04T21:00:00Z,25.5910,-80.0970,43.9,8.2,90.0,9.3,'1111122,1111122,1111122' 
NDBC,ioos:station:NOAA.NDBC:FWYF1:1,2019-04-04T22:00:00Z,25.5910,-80.0970,43.9,7.7,90.0,8.2,'1111122,1111122,1111122' 
NDBC,ioos:station:NOAA.NDBC:FWYF1:1,2019-04-04T23:00:00Z,25.5910,-80.0970,43.9,8.8,70.0,8.8,'1111122,1111122,1111122' 
NDBC,ioos:station:NOAA.NDBC:FWYF1:1,2019-04-05T00:00:00Z,25.5910,-80.0970,43.9,7.7,90.0,8.8,'1111122,1111122,1111122' 
NDBC,ioos:station:NOAA.NDBC:FWYF1:1,2019-04-05T02:00:00Z,25.5910,-80.0970,43.9,8.2,90.0,9.3,'1111122,1111122,1111122' 
NDBC,ioos:station:NOAA.NDBC:FWYF1:1,2019-04-05T03:00:00Z,25.5910,-80.0970,43.9,9.3,90.0,9.8,'1111122,1111122,1111122' 
NDBC,ioos:station:NOAA.NDBC:FWYF1:1,2019-04-05T04:00:00Z,25.5910,-80.0970,43.9,9.3,100.0,10.3,'1111122,1111122,1111122' 
NDBC,ioos:station:NOAA.NDBC:FWYF1:1,2019-04-05T05:00:00Z,25.5910,-80.0970,43.9,9.8,110.0,10.3,'1111122,1111122,1111122' 
NDBC,ioos:station:NOAA.NDBC:FWYF1:1,2019-04-05T06:00:00Z,25.5910,-80.0970,43.9,8.2,90.0,8.8,'1111122,1111122,1111122' 
NDBC,ioos:station:NOAA.NDBC:FWYF1:1,2019-04-05T07:00:00Z,25.5910,-80.0970,43.9,8.2,110.0,9.3,'1111122,1111122,1111122' 
NDBC,ioos:station:NOAA.NDBC:FWYF1:1,2019-04-05T08:00:00Z,25.5910,-80.0970,43.9,7.2,110.0,8.2,'1111122,1111122,1111122' 
NDBC,ioos:station:NOAA.NDBC:FWYF1:1,2019-04-05T09:00:00Z,25.5910,-80.0970,43.9,8.2,120.0,9.3,'1111122,1111122,1111122' 
NDBC,ioos:station:NOAA.NDBC:FWYF1:1,2019-04-05T10:00:00Z,25.5910,-80.0970,43.9,9.8,130.0,10.3,'1111122,1111122,1111122' 
NDBC,ioos:station:NOAA.NDBC:FWYF1:1,2019-04-05T11:00:00Z,25.5910,-80.0970,43.9,8.2,130.0,8.8,'1111122,1111122,1111122' 
NDBC,ioos:station:NOAA.NDBC:FWYF1:1,2019-04-05T12:00:00Z,25.5910,-80.0970,43.9,7.2,130.0,7.7,'1111122,1111122,1111122' 
NDBC,ioos:station:NOAA.NDBC:FWYF1:1,2019-04-05T13:00:00Z,25.5910,-80.0970,43.9,8.2,130.0,8.8,'1111122,1111122,1111122' 
NDBC,ioos:station:NOAA.NDBC:FWYF1:1,2019-04-05T15:00:00Z,25.5910,-80.0970,43.9,7.2,130.0,8.8,'1111122,1111122,1111122' 
NDBC,ioos:station:NOAA.NDBC:FWYF1:1,2019-04-05T16:00:00Z,25.5910,-80.0970,43.9,7.2,130.0,7.7,'1111122,1111122,1111122' 
NDBC,ioos:station:NOAA.NDBC:FWYF1:1,2019-04-05T17:00:00Z,25.5910,-80.0970,43.9,7.2,130.0,7.7,'1111122,1111122,1111122' 
NDBC,ioos:station:NOAA.NDBC:FWYF1:1,2019-04-05T18:00:00Z,25.5910,-80.0970,43.9,7.2,130.0,7.7,'1111122,1111122,1111122' 
NDBC,ioos:station:NOAA.NDBC:FWYF1:1,2019-04-05T19:00:00Z,25.5910,-80.0970,43.9,7.7,130.0,8.2,'1111122,1111122,1111122' 
NDBC,ioos:station:NOAA.NDBC:FWYF1:1,2019-04-05T20:00:00Z,25.5910,-80.0970,43.9,6.2,130.0,6.7,'1111122,1111122,1111122' 
NDBC,ioos:station:NOAA.NDBC:FWYF1:1,2019-04-05T21:00:00Z,25.5910,-80.0970,43.9,4.1,130.0,5.1,'1111122,1111122,1111122' 
NDBC,ioos:station:NOAA.NDBC:FWYF1:1,2019-04-05T22:00:00Z,25.5910,-80.0970,43.9,4.6,130.0,5.1,'1111122,1111122,1111122' 
NDBC,ioos:station:NOAA.NDBC:FWYF1:1,2019-04-05T23:00:00Z,25.5910,-80.0970,43.9,5.1,120.0,5.7,'1111122,1111122,1111122' 
NDBC,ioos:station:NOAA.NDBC:FWYF1:1,2019-04-06T00:00:00Z,25.5910,-80.0970,43.9,4.6,110.0,5.1,'1111122,1111122,1111122' 
NDBC,ioos:station:NOAA.NDBC:FWYF1:1,2019-04-06T01:00:00Z,25.5910,-80.0970,43.9,5.1,110.0,5.7,'1111122,1111122,1111122' 
NDBC,ioos:station:NOAA.NDBC:FWYF1:1,2019-04-06T03:00:00Z,25.5910,-80.0970,43.9,4.6,90.0,5.1,'1111122,1111122,1111122' 
NDBC,ioos:station:NOAA.NDBC:FWYF1:1,2019-04-06T04:00:00Z,25.5910,-80.0970,43.9,4.6,90.0,5.1,'1111122,1111122,1111122' 
NDBC,ioos:station:NOAA.NDBC:FWYF1:1,2019-04-06T05:00:00Z,25.5910,-80.0970,43.9,4.1,80.0,4.6,'1111122,1111122,1111122' 
NDBC,ioos:station:NOAA.NDBC:FWYF1:1,2019-04-06T06:00:00Z,25.5910,-80.0970,43.9,5.1,90.0,5.7,'1111122,1111122,1111122' 
NDBC,ioos:station:NOAA.NDBC:FWYF1:1,2019-04-06T07:00:00Z,25.5910,-80.0970,43.9,4.6,110.0,4.6,'1111122,1111122,1111122' 
NDBC,ioos:station:NOAA.NDBC:FWYF1:1,2019-04-06T08:00:00Z,25.5910,-80.0970,43.9,4.6,110.0,4.6,'1111122,1111122,1111122' 
NDBC,ioos:station:NOAA.NDBC:FWYF1:1,2019-04-06T09:00:00Z,25.5910,-80.0970,43.9,5.1,100.0,5.7,'1111122,1111122,1111122' 
NDBC,ioos:station:NOAA.NDBC:FWYF1:1,2019-04-06T10:00:00Z,25.5910,-80.0970,43.9,5.7,100.0,6.2,'1111122,1111122,1111122' 
NDBC,ioos:station:NOAA.NDBC:FWYF1:1,2019-04-06T11:00:00Z,25.5910,-80.0970,43.9,5.1,110.0,5.7,'1111122,1111122,1111122' 
NDBC,ioos:station:NOAA.NDBC:FWYF1:1,2019-04-06T12:00:00Z,25.5910,-80.0970,43.9,5.1,100.0,5.7,'1111122,1111122,1111122' 
NDBC,ioos:station:NOAA.NDBC:FWYF1:1,2019-04-06T14:00:00Z,25.5910,-80.0970,43.9,6.2,90.0,6.7,'1111122,1111122,1111122' 
NDBC,ioos:station:NOAA.NDBC:FWYF1:1,2019-04-06T15:00:00Z,25.5910,-80.0970,43.9,5.7,80.0,5.7,'1111122,1111122,1111122' 
NDBC,ioos:station:NOAA.NDBC:FWYF1:1,2019-04-06T16:00:00Z,25.5910,-80.0970,43.9,5.1,90.0,5.7,'1111122,1111122,1111122' 
NDBC,ioos:station:NOAA.NDBC:FWYF1:1,2019-04-06T17:00:00Z,25.5910,-80.0970,43.9,5.1,80.0,5.7,'1111122,1111122,1111122' 
NDBC,ioos:station:NOAA.NDBC:FWYF1:1,2019-04-06T18:00:00Z,25.5910,-80.0970,43.9,5.7,90.0,6.2,'1111122,1111122,1111122' 
NDBC,ioos:station:NOAA.NDBC:FWYF1:1,2019-04-06T19:00:00Z,25.5910,-80.0970,43.9,5.7,100.0,6.2,'1111122,1111122,1111122' 
NDBC,ioos:station:NOAA.NDBC:FWYF1:1,2019-04-06T20:00:00Z,25.5910,-80.0970,43.9,6.2,100.0,6.7,'1111122,1111122,1111122' 
NDBC,ioos:station:NOAA.NDBC:FWYF1:1,2019-04-06T21:00:00Z,25.5910,-80.0970,43.9,5.7,100.0,6.7,'1111122,1111122,1111122' 
NDBC,ioos:station:NOAA.NDBC:FWYF1:1,2019-04-06T22:00:00Z,25.5910,-80.0970,43.9,5.7,90.0,6.2,'1111122,1111122,1111122' 
NDBC,ioos:station:NOAA.NDBC:FWYF1:1,2019-04-06T23:00:00Z,25.5910,-80.0970,43.9,6.7,80.0,7.2,'1111122,1111122,1111122' 
NDBC,ioos:station:NOAA.NDBC:FWYF1:1,2019-04-07T00:00:00Z,25.5910,-80.0970,43.9,7.2,80.0,7.2,'1111122,1111122,1111122' 
NDBC,ioos:station:NOAA.NDBC:FWYF1:1,2019-04-07T01:00:00Z,25.5910,-80.0970,43.9,7.2,80.0,7.7,'1111122,1111122,1111122' 
NDBC,ioos:station:NOAA.NDBC:FWYF1:1,2019-04-07T02:00:00Z,25.5910,-80.0970,43.9,7.7,80.0,8.2,'1111122,1111122,1111122' 
NDBC,ioos:station:NOAA.NDBC:FWYF1:1,2019-04-07T03:00:00Z,25.5910,-80.0970,43.9,8.2,80.0,8.8,'1111122,1111122,1111122' 
 
DISCLAIMER: The Gulf of Mexico Coastal and Ocean Observing (GCOOS) Data Portal aggregates data from the regional data providers for the convenience of all data users. Data published on this website should not be used for navigation or certain other uses as we cannot guarantee data accuracy or availability. The data and delivery services are provided 'as is' without warranty of any kind. Data Source: Gulf of Mexico Coastal Ocean Observing System Data Portal (http://data.gcoos.org/) 
